Weather History for KMSY - January, 2013

Change the Weather History Date:

Wednesday, January 23, 2013

  Actual Average (KNEW) Record (KNEW)
Temperature  
Mean Temperature 58 °F 53 °F  
Max Temperature 70 °F 62 °F 81 °F (2002)
Min Temperature 46 °F 45 °F 21 °F (1963)
Degree Days  
Heating Degree Days 7 12  
Month to date heating degree days 276  
Since 1 July heating degree days 757  
Cooling Degree Days 0 0  
Month to date cooling degree days 12  
Year to date cooling degree days 12  
Growing Degree Days 8 (Base 50)    
Moisture  
Dew Point 47 °F    
Average Humidity 72    
Maximum Humidity 93    
Minimum Humidity 36    
Precipitation  
Precipitation 0.00 in 0.17 in 2.03 in (1974)
Month to date precipitation 3.79  
Year to date precipitation 3.79  
Snow  
Snow 0.00 in - - ()
Month to date snowfall  
Since 1 July snowfall  
Snow Depth -    
Sea Level Pressure  
Sea Level Pressure 30.35 in    
Wind  
Wind Speed 4 mph (South)    
Max Wind Speed 12 mph    
Max Gust Speed -    
Visibility 8 miles    
Events Fog    
T = Trace of Precipitation, MM = Missing Value Source: NWS Daily Summary

Daily Weather History Graph

Daily Weather History Graph

Search for Another Location

Airport or City:

Trip Planner

Search our weather history database for the weather conditions in past years. The results will help you decide how hot, cold, wet, or windy it might be!

Date:

Astronomy

Jan. 23, 2013 Rise Set
Actual Time 6:55 AM CST 5:30 PM CST
Civil Twilight 6:30 AM CST 5:56 PM CST
Nautical Twilight 6:01 AM CST 6:25 PM CST
Astronomical Twilight 5:32 AM CST 6:53 PM CST
Moon 2:44 PM CST (1/23) 4:03 AM CST (1/23)
Length of Visible Light 11h 26m
Length of Day
10h 35m
Waxing Gibbous, 89% of the Moon is Illuminated
Jan 23
Waxing Gibbous
Jan 26
Full
Feb 3
Last Quarter
Feb 10
New
Feb 17
First Quarter

Hourly Weather History & Observations

Time (CST) Temp. Windchill Dew Point Humidity Pressure Visibility Wind Dir Wind Speed Gust Speed Precip Events Conditions
12:53 AM 48.0 °F - 44.1 °F 86% 30.35 in 9.0 mi Calm Calm - N/A   Clear
1:53 AM 46.0 °F - 43.0 °F 89% 30.35 in 8.0 mi Calm Calm - N/A   Clear
2:53 AM 45.0 °F - 42.1 °F 90% 30.35 in 7.0 mi Calm Calm - N/A   Clear
3:53 AM 45.0 °F 43.5 °F 42.1 °F 90% 30.35 in 7.0 mi South 3.5 mph - N/A   Clear
4:53 AM 45.0 °F 43.5 °F 43.0 °F 93% 30.35 in 7.0 mi SSE 3.5 mph - N/A   Clear
5:53 AM 46.0 °F 44.8 °F 43.0 °F 89% 30.36 in 7.0 mi South 3.5 mph - N/A   Partly Cloudy
6:53 AM 46.9 °F - 45.0 °F 93% 30.38 in 6.0 mi Calm Calm - N/A   Partly Cloudy
7:53 AM 51.1 °F - 48.0 °F 89% 30.38 in 3.0 mi SSE 3.5 mph - N/A Fog Shallow Fog
8:53 AM 57.0 °F - 51.1 °F 81% 30.40 in 8.0 mi SSE 3.5 mph - N/A   Partly Cloudy
9:53 AM 62.1 °F - 48.0 °F 60% 30.42 in 10.0 mi South 4.6 mph - N/A   Partly Cloudy
10:53 AM 64.9 °F - 45.0 °F 48% 30.41 in 10.0 mi SSW 6.9 mph - N/A   Clear
11:53 AM 66.9 °F - 46.0 °F 47% 30.38 in 10.0 mi South 8.1 mph - N/A   Clear
12:53 PM 68.0 °F - 45.0 °F 43% 30.35 in 10.0 mi SSW 5.8 mph - N/A   Clear
1:53 PM 69.1 °F - 45.0 °F 42% 30.33 in 10.0 mi SSW 6.9 mph - N/A   Clear
2:53 PM 70.0 °F - 45.0 °F 41% 30.32 in 10.0 mi SSW 6.9 mph - N/A   Clear
3:53 PM 69.1 °F - 46.9 °F 45% 30.32 in 10.0 mi South 8.1 mph - N/A   Partly Cloudy
4:53 PM 64.9 °F - 48.0 °F 54% 30.31 in 10.0 mi South 11.5 mph - N/A   Partly Cloudy
5:53 PM 61.0 °F - 50.0 °F 67% 30.32 in 10.0 mi South 8.1 mph - N/A   Partly Cloudy
6:53 PM 60.1 °F - 48.9 °F 67% 30.32 in 10.0 mi SSW 10.4 mph - N/A   Partly Cloudy
7:53 PM 57.9 °F - 50.0 °F 75% 30.32 in 10.0 mi South 9.2 mph - N/A   Clear
8:53 PM 57.0 °F - 51.1 °F 81% 30.33 in 10.0 mi SSW 6.9 mph - N/A   Clear
9:53 PM 55.0 °F - 50.0 °F 83% 30.33 in 10.0 mi South 5.8 mph - N/A   Clear
10:53 PM 53.1 °F - 50.0 °F 89% 30.33 in 6.0 mi South 5.8 mph - N/A   Clear
11:53 PM 52.0 °F - 50.0 °F 93% 30.32 in 5.0 mi South 5.8 mph - N/A   Clear